LW7DST Weather Reports


time (UTC)temp
C
wind
direction
speed
KPH
gust
KPH
rain 1hr
cm
rain 24hr
cm
rain mn
cm
humidity
%
barometer
mb
20260507235404 12 252 11.3 43.5 0.00 0.84 0.84 85 993.2
20260507234504 12 239 11.3 25.7 0.00 0.84 0.84 85 993.1
20260507233813 12 239 16.1 25.7 0.00 0.84 0.84 86 993.4
20260507232704 12 229 17.7 30.6 0.00 0.84 0.84 88 993.3
20260507232014 12 226 17.7 30.6 0.00 0.84 0.84 88 993.2
20260507231114 12 254 8.0 24.1 0.00 0.84 0.84 89 993.6
20260507230005 12 257 16.1 25.7 0.00 0.84 0.84 89 993.9
20260507225404 12 259 12.9 25.7 0.00 0.84 0.84 89 993.9
20260507224505 12 255 8.0 29.0 0.00 0.84 0.84 88 993.9
20260507223604 12 233 12.9 24.1 0.00 0.84 0.84 87 993.7
20260507222704 12 241 12.9 22.5 0.00 0.84 0.84 86 993.7
20260507221804 12 263 16.1 24.1 0.00 0.84 0.84 85 993.8
20260507220904 12 254 11.3 19.3 0.00 0.84 0.84 85 993.4
20260507220004 12 241 8.0 24.1 0.00 0.84 0.84 84 993.3
20260507215614 13 251 11.3 35.4 0.00 0.84 0.84 83 993.2
20260507214504 13 286 14.5 29.0 0.00 0.84 0.84 81 992.9
20260507213604 13 294 17.7 27.4 0.00 0.84 0.84 79 992.7
20260507212704 13 262 12.9 27.4 0.00 0.84 0.84 78 992.9
20260507211804 13 263 11.3 22.5 0.00 0.84 0.84 76 993.2
20260507210904 13 258 8.0 25.7 0.00 0.84 0.84 76 993.2
20260507210005 13 289 9.7 17.7 0.00 0.84 0.84 75 993.3
20260507205404 13 257 6.4 20.9 0.00 0.84 0.84 74 993.4
20260507204504 13 260 9.7 27.4 0.00 0.84 0.84 73 993.1
20260507203604 14 240 12.9 25.7 0.00 0.84 0.84 72 992.8
20260507202704 14 216 12.9 33.8 0.00 0.84 0.84 72 992.5
20260507201804 14 233 12.9 33.8 0.00 0.84 0.84 72 992.6
20260507200903 15 266 22.5 33.8 0.00 0.84 0.84 72 992.7
20260507200004 15 232 14.5 24.1 0.00 0.84 0.84 72 992.0
20260507195404 15 231 17.7 25.7 0.00 0.84 0.84 71 991.5
20260507194504 15 227 12.9 29.0 0.00 0.84 0.84 70 990.9
20260507193604 15 251 12.9 35.4 0.00 0.84 0.84 70 990.9
20260507192913 15 230 17.7 35.4 0.00 0.84 0.84 70 991.2
20260507191804 15 265 11.3 27.4 0.00 0.84 0.84 70 991.5
20260507190904 15 273 12.9 32.2 0.00 0.84 0.84 70 991.9
20260507190005 15 282 16.1 32.2 0.00 0.84 0.84 71 992.7
20260507185404 15 260 17.7 30.6 0.00 0.84 0.84 71 992.9
20260507184504 15 254 11.3 35.4 0.00 0.84 0.84 71 993.3
20260507183814 15 249 12.9 29.0 0.00 0.84 0.84 71 993.3
20260507182704 15 251 12.9 27.4 0.00 0.84 0.84 71 993.4
20260507181804 15 253 14.5 29.0 0.00 0.84 0.84 72 993.8
20260507180903 15 297 6.4 25.7 0.00 0.84 0.84 73 994.6
20260507180004 15 299 12.9 25.7 0.00 0.84 0.84 73 994.6
20260507175404 15 284 12.9 27.4 0.00 0.84 0.84 74 994.5
20260507174714 15 244 9.7 27.4 0.00 0.84 0.84 74 994.2
20260507173604 15 289 11.3 24.1 0.00 0.84 0.84 76 993.7
20260507172704 15 244 6.4 22.5 0.00 0.84 0.84 77 992.9
20260507171804 14 220 6.4 14.5 0.00 0.84 0.84 77 992.7
20260507170905 15 223 6.4 12.9 0.00 0.84 0.84 78 992.7
20260507170005 14 225 6.4 12.9 0.00 0.84 0.84 77 993.1
20260507165404 14 228 3.2 17.7 0.00 0.84 0.84 77 993.0
20260507164504 14 201 8.0 24.1 0.00 0.84 0.84 77 993.9
20260507163604 14 251 6.4 27.4 0.00 0.84 0.84 77 994.4
20260507162914 14 236 12.9 27.4 0.00 0.84 0.84 78 994.5
20260507161804 14 246 9.7 35.4 0.00 0.84 0.84 77 994.3
20260507160903 15 218 16.1 25.7 0.00 0.84 0.84 77 993.7
20260507160005 15 211 6.4 19.3 0.00 0.84 0.84 78 993.2
20260507155405 15 209 6.4 25.7 0.00 0.84 0.84 78 992.6
20260507154505 15 212 11.3 22.5 0.00 0.84 0.84 79 993.0
20260507153605 15 222 6.4 22.5 0.00 0.84 0.84 77 993.0
20260507152704 15 235 14.5 30.6 0.00 0.84 0.84 77 993.2
20260507151804 15 235 6.4 29.0 0.00 0.84 0.84 80 993.7
20260507151114 16 236 14.5 24.1 0.00 0.84 0.84 83 993.3
20260507150005 16 234 8.0 19.3 0.00 0.84 0.84 83 993.2
20260507145404 16 277 6.4 25.7 0.00 0.84 0.84 85 993.3
20260507144504 15 252 11.3 27.4 0.00 0.84 0.84 87 993.9
20260507143604 16 223 4.8 24.1 0.00 0.84 0.84 88 993.8
20260507142704 16 244 11.3 20.9 0.00 0.84 0.84 88 993.8
20260507141805 16 209 4.8 11.3 0.00 0.84 0.84 88 992.4
20260507140904 16 210 4.8 17.7 0.00 0.84 0.84 89 992.4
20260507140005 16 224 6.4 14.5 0.00 0.84 0.84 89 992.4
20260507135404 16 223 3.2 14.5 0.00 0.84 0.84 90 992.8
20260507134503 16 221 6.4 17.7 0.00 0.84 0.84 90 993.1
20260507133604 16 215 11.3 16.1 0.00 0.84 0.84 90 993.6
20260507132704 16 221 3.2 14.5 0.00 0.86 0.84 90 993.5
20260507131805 16 237 3.2 16.1 0.00 0.89 0.84 90 994.2
20260507131114 16 219 4.8 11.3 0.00 0.89 0.84 91 993.9
20260507130215 15 233 6.4 12.9 0.00 0.89 0.84 92 994.1
20260507125615 15 277 8.0 17.7 0.00 0.89 0.84 92 994.8
20260507124714 15 243 3.2 20.9 0.00 0.89 0.84 92 994.5
20260507123605 15 221 12.9 22.5 0.00 0.89 0.84 93 992.2
20260507122915 15 231 12.9 22.5 0.00 0.89 0.84 94 992.2
20260507121804 15 248 11.3 24.1 0.00 0.89 0.84 95 992.3
20260507120904 15 230 11.3 27.4 0.00 0.89 0.84 97 993.2
20260507120005 15 247 16.1 27.4 0.00 0.89 0.84 98 993.0
20260507115404 15 231 6.4 27.4 0.00 0.89 0.84 98 992.6
20260507114504 15 212 19.3 25.7 0.00 0.89 0.84 99 991.8
20260507113605 15 216 12.9 25.7 0.00 0.89 0.84 99 991.3
20260507112705 15 259 11.3 22.5 0.00 0.89 0.84 99 993.1
20260507111804 15 279 12.9 19.3 0.00 0.89 0.84 99 993.4
20260507110904 15 237 11.3 20.9 0.00 0.89 0.84 99 992.6
20260507110005 16 224 4.8 12.9 0.00 0.89 0.84 99 992.0
20260507105404 16 224 6.4 17.7 0.00 0.89 0.84 99 991.7
20260507104715 16 219 6.4 17.7 0.00 0.89 0.84 98 991.4
20260507103604 16 347 0.0 3.2 0.00 0.89 0.84 98 992.2
20260507102704 16 318 0.0 6.4 0.00 0.89 0.84 98 991.9
20260507101804 16 308 1.6 9.7 0.00 0.89 0.84 98 992.7
20260507100904 16 297 3.2 14.5 0.00 0.89 0.84 98 992.4
20260507100005 16 240 3.2 12.9 0.00 0.89 0.84 98 991.6
20260507095614 16 210 12.9 14.5 0.00 0.89 0.84 98 991.1
20260507094504 16 218 6.4 19.3 0.00 0.89 0.84 98 990.3
20260507093605 16 227 4.8 27.4 0.00 0.89 0.84 98 991.2
20260507092914 16 229 9.7 27.4 0.00 0.89 0.84 98 991.7
20260507091804 16 210 8.0 16.1 0.00 0.89 0.84 98 991.5
20260507090904 16 212 3.2 16.1 0.00 0.89 0.84 98 990.6
20260507090005 16 219 6.4 20.9 0.00 0.89 0.84 98 990.9
20260507085404 16 223 6.4 20.9 0.00 0.89 0.84 98 990.9
20260507084504 17 230 6.4 16.1 0.00 0.89 0.84 97 991.7
20260507083604 17 250 6.4 17.7 0.00 0.89 0.84 97 991.6
20260507082913 17 235 9.7 17.7 0.00 0.89 0.84 97 991.5
20260507081804 18 231 12.9 22.5 0.00 0.89 0.84 98 991.1
20260507080904 18 260 9.7 17.7 0.00 0.89 0.84 98 991.5
20260507080004 17 309 0.0 6.4 0.00 0.89 0.84 98 991.4
20260507075404 17 205 0.0 8.0 0.00 0.89 0.84 97 991.5
20260507074504 18 154 0.0 11.3 0.03 0.89 0.84 98 990.0
20260507073604 18 105 4.8 9.7 0.03 0.89 0.84 98 990.2
20260507072704 18 66 3.2 12.9 0.03 0.89 0.84 98 991.1
20260507071804 18 80 4.8 12.9 0.05 0.89 0.84 97 991.2
20260507070904 18 88 1.6 12.9 0.10 0.89 0.84 97 991.1
20260507070008 18 71 3.2 14.5 0.13 0.89 0.84 97 991.0
20260507065404 18 61 6.4 14.5 0.13 0.89 0.84 97 991.1
20260507064504 18 61 6.4 16.1 0.13 0.86 0.81 97 991.6
20260507063604 18 81 6.4 20.9 0.13 0.86 0.81 97 991.8
20260507062704 18 105 9.7 19.3 0.15 0.86 0.81 97 991.1
20260507061804 18 103 4.8 11.3 0.13 0.84 0.79 97 993.0
20260507060904 18 113 4.8 9.7 0.10 0.81 0.76 97 993.0
20260507060004 19 147 0.0 6.4 0.05 0.79 0.71 96 993.8
20260507055404 19 198 0.0 9.7 0.05 0.79 0.71 96 994.4
20260507054504 19 211 8.0 14.5 0.05 0.76 0.69 96 994.1
20260507053604 19 216 8.0 16.1 0.05 0.76 0.69 95 993.9
20260507052704 19 202 4.8 14.5 0.05 0.71 0.66 95 993.4
20260507051804 19 147 3.2 11.3 0.10 0.71 0.66 95 992.9
20260507050904 19 177 6.4 11.3 0.30 0.71 0.66 95 992.6
20260507050005 19 272 0.0 12.9 0.56 0.71 0.66 94 992.1
20260507045404 19 179 6.4 17.7 0.64 0.71 0.66 94 992.2
20260507044713 19 177 8.0 14.5 0.64 0.69 0.64 94 991.1
20260507043604 19 195 3.2 12.9 0.64 0.69 0.64 93 993.1
20260507042704 19 250 1.6 11.3 0.61 0.66 0.61 93 993.6
20260507041804 19 123 3.2 20.9 0.56 0.64 0.56 92 992.6
20260507040904 20 219 6.4 24.1 0.36 0.43 0.36 90 992.8
20260507040004 20 203 6.4 33.8 0.10 0.15 0.10 87 992.2
20260507035404 21 206 12.9 33.8 0.03 0.10 0.03 83 991.5
20260507034504 22 291 8.0 37.0 0.00 0.05 0.00 78 991.4
20260507033814 24 355 17.7 33.8 0.00 0.05 0.00 85 990.8
20260507032913 24 11 17.7 24.1 0.00 0.05 0.00 82 990.0
20260507031804 25 14 12.9 33.8 0.00 0.05 0.00 78 990.2
20260507030904 25 1 16.1 29.0 0.00 0.05 0.00 77 990.3
20260507030013 25 341 11.3 37.0 0.00 0.05 0.00 76 990.7
20260507025404 25 329 9.7 29.0 0.00 0.05 0.05 76 990.7
20260507024504 25 348 16.1 33.8 0.00 0.05 0.05 76 990.5
20260507023604 25 350 6.4 32.2 0.00 0.05 0.05 76 991.0
20260507022704 25 356 11.3 27.4 0.00 0.05 0.05 77 990.8
20260507021804 25 347 9.7 27.4 0.00 0.05 0.05 77 991.1
20260507020904 25 10 12.9 25.7 0.00 0.05 0.05 77 991.1
20260507020004 25 18 11.3 24.1 0.00 0.05 0.05 77 991.5
20260507015404 25 15 6.4 22.5 0.00 0.05 0.05 77 991.9
20260507014505 25 6 11.3 25.7 0.00 0.05 0.05 77 991.8
20260507013604 25 357 14.5 24.1 0.00 0.05 0.05 77 992.0
20260507012704 25 334 11.3 24.1 0.00 0.05 0.05 77 992.0
20260507012014 25 1 12.9 27.4 0.00 0.05 0.05 77 992.0
20260507010904 25 347 11.3 27.4 0.00 0.05 0.05 77 991.9
20260507010004 26 360 16.1 27.4 0.00 0.05 0.05 77 992.0
20260507005404 26 20 9.7 25.7 0.00 0.05 0.05 76 992.2
20260507004504 26 352 12.9 22.5 0.00 0.05 0.05 76 992.3
20260507003604 26 338 8.0 27.4 0.00 0.05 0.05 76 992.4
20260507002705 26 340 19.3 30.6 0.00 0.05 0.05 76 992.4
20260507002016 25 334 12.9 24.1 0.00 0.05 0.05 77 991.8
20260507000904 25 353 12.9 25.7 0.00 0.05 0.05 79 991.8